Hourly Weather Roundup
Issued by NWS Central Illinois

Home | Current Version | Previous Version | Text Only | Print | Product List | Glossary On
Versions: 1 2 3 4 5 6 7 8 9 10 11 12 13 14 15 16 17 18 19 20 21 22 23 24 25 26 27 28 29 30 31 32 33 34 35 36 37 38 39 40 41 42 43 44 45 46 47 48 49 50
000
NZUS43 KILX 301610
HWRILX

AREA WEATHER ROUNDUP
NATIONAL WEATHER SERVICE, LINCOLN IL
1100 AM CDT TUE SEP 30 2014


CITY           SKY/WX    TMP DP  RH WIND       PRES   REMARKS
BLOOMINGTON    MOSUNNY   61  52  72 NE9         N/A
CHAMPAIGN      NOT AVBL
DECATUR        CLOUDY    61  55  81 NE10      30.01S
FLORA          SUNNY     71  59  66 NE5       29.98S
GALESBURG      CLOUDY    55  51  88 E7        30.03S
JACKSONVILLE   CLOUDY    60  59  97 E9        30.02R FOG
LACON          CLOUDY    58  48  71 E5        30.03S
LAWRENCEVILLE  MOSUNNY   67  60  78 VRB6      29.98S HAZE
LITCHFIELD     CLOUDY    61  57  87 NE7       29.99S FOG
$$


CITY           SKY/WX    TMP DP  RH WIND       PRES   REMARKS
LINCOLN        CLOUDY    61  54  78 NE8       30.00S
MACOMB         CLOUDY    59  55  88 E8        30.04S
MATTOON        CLOUDY    61  55  81 NE9       30.00R
MT CARMEL AP   SUNNY     73  61  64 CALM      29.97S
OLNEY-NOBLE AP SUNNY     64  59  82 NE5       29.99S HAZE
PARIS          CLOUDY    61  55  82 NE3       30.02R
PEORIA         CLOUDY    60  51  72 NE12      30.02F
PONTIAC        PTSUNNY   61  52  72 NE7       30.04R
RANTOUL        PTSUNNY   60  50  69 NE8       30.03S
ROBINSON       CLOUDY    64  62  93 N7        30.00S FOG
SPRINGFIELD    CLOUDY    61  56  83 E8        30.01F
TAYLORVILLE    CLOUDY    59  55  88 NE7       30.01R FOG
$$

...REGIONAL REPORTS...


CITY           SKY/WX    TMP DP  RH WIND       PRES   REMARKS
CHICAGO O`HARE DRIZZLE   53  46  77 N7        30.06R FOG
KANKAKEE       CLOUDY    58  49  72 NE9G16    30.04S
MOLINE         NOT AVBL
MOUNT VERNON   NOT AVBL
PITTSFIELD     CLOUDY    60  58  92 E6        30.01R FOG
QUINCY         CLOUDY    60  59  96 E10       29.99S FOG
ROCKFORD       CLOUDY    49  42  77 NE6       30.10S
$$


CITY           SKY/WX    TMP DP  RH WIND       PRES   REMARKS
BURLINGTON     CLOUDY    58  55  90 E12       30.01S
CEDAR RAPIDS   NOT AVBL
DES MOINES     CLOUDY    60  56  86 E9        29.96S FOG
KIRKSVILLE     CLOUDY    64  61  90 E8        29.98S FOG
OTTUMWA        CLOUDY    58  53  84 E14       29.99S
ST LOUIS       MOSUNNY   78  59  51 CALM      29.97S
$$


CITY           SKY/WX    TMP DP  RH WIND       PRES   REMARKS
TERRE HAUTE    PTSUNNY   63  56  78 CALM      29.99S
EVANSVILLE     SUNNY     79  59  50 CALM      29.96F HX  80
INDIANAPOLIS   MOSUNNY   63  54  72 N6        29.98S
LAFAYETTE      CLOUDY    59  50  72 NE10      30.01S
MADISON        CLOUDY    46  41  82 NE8       30.09F
MILWAUKEE      CLOUDY    50  43  77 N15       30.07F
$$




USA.gov is the U.S. government's official web portal to all federal, state and local government web resources and services.